Regional Weather Roundup
Issued by NWS

Home | Current Version | Previous Version | Text Only | Print | Product List | Glossary Off
Versions: 1 2 3 4 5 6 7 8 9 10 11 12 13 14 15 16 17 18 19 20 21 22 23 24 25 26 27 28 29 30 31 32 33 34 35 36 37 38 39 40 41 42 43 44 45 46 47 48 49 50

013
ASUS43 KLSX 250310
RWRMO

WEATHER SUMMARY FOR MISSOURI
NATIONAL WEATHER SERVICE SPRINGFIELD MO
1000 PM CDT SUN JUL 24 2016

NOTE: "FAIR" INDICATES FEW OR NO CLOUDS BELOW 12,000 FEET WITH NO
       SIGNIFICANT WEATHER AND/OR OBSTRUCTIONS TO VISIBILITY.
       CURRENT SKY AND/OR WEATHER CONDITIONS ARE NOT AVAILABLE FOR
       CHILLICOTHE AND FARMINGTON.

MOZ001>031-035>038-043-044-053-054-250400-
...NORTHERN AND WESTERN MISSOURI...

CITY           SKY/WX    TMP DP  RH WIND       PRES   REMARKS
KANSAS CTY INT CLOUDY    80  69  69 NE7       29.99R
KANSAS C DTWN  CLOUDY    83  68  60 NE8       29.97R
LEE`S SUMMIT   CLOUDY    83  73  72 E12       30.01R
ST JOSEPH      CLOUDY    77  66  68 NE3       29.99R
CHILLICOTHE      N/A     80  71  74 CALM      29.98R
KIRKSVILLE     CLOUDY    76  72  87 CALM      29.99R

$$
MOZ066>068-077>081-088>096-101>105-250400-
...SOUTHWEST MISSOURI...

CITY           SKY/WX    TMP DP  RH WIND       PRES   REMARKS
SPRINGFIELD    CLEAR     86  74  67 SE6       29.98R HX  94
JOPLIN         CLEAR     85  74  69 SE6       29.96R HX  92
BRANSON        CLOUDY    81  73  78 CALM      30.01R

$$
MOZ032>034-039>042-045>050-055>058-069>072-250400-
...CENTRAL MISSOURI...

CITY           SKY/WX    TMP DP  RH WIND       PRES   REMARKS
COLUMBIA       PTCLDY    86  77  74 N3        29.95R HX  97
JEFFERSON CITY PTCLDY    86  79  79 CALM      29.92R HX  99
ROLLA          CLEAR     82  73  74 S9        29.97R
SEDALIA        CLOUDY    85  79  82 N6        29.98R HX  98
WHITEMAN AFB   TSTM      79  72  78 W25G41    29.98R FOG
OSAGE BEACH    CLEAR     84  81  90 CALM      29.96R HX  99

$$
MOZ051-052-059>065-250400-
...EAST CENTRAL MISSOURI...

CITY           SKY/WX    TMP DP  RH WIND       PRES   REMARKS
ST LOUIS INTL  PTCLDY    90  78  68 S13       29.91F HX 104
SPIRIT OF STL  CLEAR     88  80  77 S9        29.90S HX 104
ST CHARLES     PTCLDY    87  81  82 S5        29.88F HX 104

$$
MOZ072>076-082>087-097>100-106>115-250400-
...SOUTH CENTRAL AND SOUTHEAST MISSOURI...

CITY           SKY/WX    TMP DP  RH WIND       PRES   REMARKS
CAPE GIRARDEAU PTCLDY    81  77  88 S5        29.96R
FARMINGTON     CLEAR     82  78  88 S6        29.99R HX  91
POPLAR BLUFF   PTCLDY    83  77  82 S5        29.96R HX  92
WEST PLAINS    CLEAR     83  73  72 S5        30.03R

$$




USA.gov is the U.S. government's official web portal to all federal, state and local government web resources and services.